Previsão horária em Alice Springs

Hoje, 19 Junho, Sábado

Tempo Temperatura Precipitação Vento Pressão Humidade
00:00 +7°C° 0 mm 3 m/s 715 mmHg 57%
01:00 +7°C° 0 mm 3 m/s 715 mmHg 57%
02:00 +5°C° 0 mm 3 m/s 714 mmHg 58%
03:00 +5°C° 0 mm 3 m/s 714 mmHg 60%
04:00 +4°C° 0 mm 3 m/s 714 mmHg 62%
05:00 +4°C° 0 mm 3 m/s 714 mmHg 64%
06:00 +3°C° 0 mm 3 m/s 714 mmHg 66%
07:00 +5°C° 0 mm 4 m/s 715 mmHg 62%
08:00 +7°C° 0 mm 5 m/s 715 mmHg 59%
09:00 +8°C° 0 mm 6 m/s 715 mmHg 55%
10:00 +10°C° 0 mm 6 m/s 715 mmHg 51%
11:00 +13°C° 0 mm 6 m/s 715 mmHg 47%
12:00 +14°C° 0 mm 7 m/s 714 mmHg 43%
13:00 +15°C° 0 mm 7 m/s 714 mmHg 40%
14:00 +15°C° 0 mm 7 m/s 713 mmHg 38%
15:00 +15°C° 0 mm 7 m/s 713 mmHg 37%
16:00 +14°C° 0 mm 6 m/s 713 mmHg 40%
17:00 +13°C° 0 mm 5 m/s 713 mmHg 44%
18:00 +11°C° 0 mm 4 m/s 714 mmHg 47%
19:00 +11°C° 0.1 mm 3 m/s 714 mmHg 49%
20:00 +11°C° 0.1 mm 3 m/s 714 mmHg 51%
21:00 +10°C° 0.1 mm 2 m/s 715 mmHg 53%
22:00 +10°C° 0.1 mm 2 m/s 714 mmHg 54%
23:00 +10°C° 0.1 mm 3 m/s 714 mmHg 54%

Amanhã, 20 Junho, Domingo

Tempo Temperatura Precipitação Vento Pressão Humidade
00:00 +10°C° 0.1 mm 3 m/s 714 mmHg 55%
01:00 +9°C° 0 mm 3 m/s 714 mmHg 58%
02:00 +8°C° 0 mm 2 m/s 713 mmHg 61%
03:00 +7°C° 0 mm 2 m/s 713 mmHg 63%
04:00 +7°C° 0 mm 2 m/s 713 mmHg 67%
05:00 +6°C° 0 mm 2 m/s 713 mmHg 70%
06:00 +6°C° 0 mm 2 m/s 713 mmHg 73%
07:00 +8°C° 0 mm 3 m/s 714 mmHg 67%
08:00 +9°C° 0 mm 3 m/s 714 mmHg 61%
09:00 +11°C° 0 mm 4 m/s 714 mmHg 54%
10:00 +13°C° 0 mm 3 m/s 714 mmHg 50%
11:00 +14°C° 0 mm 3 m/s 713 mmHg 45%
12:00 +17°C° 0 mm 3 m/s 713 mmHg 40%
13:00 +17°C° 0 mm 3 m/s 712 mmHg 39%
14:00 +18°C° 0 mm 2 m/s 712 mmHg 38%
15:00 +18°C° 0 mm 2 m/s 712 mmHg 36%
16:00 +17°C° 0 mm 3 m/s 712 mmHg 40%
17:00 +14°C° 0 mm 3 m/s 712 mmHg 44%
18:00 +13°C° 0 mm 4 m/s 712 mmHg 48%
19:00 +12°C° 0 mm 4 m/s 712 mmHg 52%
20:00 +11°C° 0 mm 4 m/s 713 mmHg 56%
21:00 +10°C° 0 mm 4 m/s 713 mmHg 60%
22:00 +9°C° 0 mm 3 m/s 713 mmHg 62%
23:00 +9°C° 0 mm 3 m/s 713 mmHg 63%

Depois de amanhã, 21 Junho, Segunda-feira

Tempo Temperatura Precipitação Vento Pressão Humidade
00:00 +8°C° 0 mm 3 m/s 712 mmHg 65%
01:00 +8°C° 0 mm 3 m/s 712 mmHg 66%
02:00 +8°C° 0 mm 3 m/s 712 mmHg 66%
03:00 +7°C° 0 mm 2 m/s 712 mmHg 67%
04:00 +7°C° 0 mm 2 m/s 712 mmHg 69%
05:00 +7°C° 0 mm 2 m/s 712 mmHg 70%
06:00 +6°C° 0 mm 2 m/s 712 mmHg 71%
07:00 +9°C° 0 mm 2 m/s 713 mmHg 63%
08:00 +12°C° 0 mm 2 m/s 713 mmHg 55%
09:00 +13°C° 0 mm 3 m/s 714 mmHg 48%
10:00 +15°C° 0 mm 2 m/s 713 mmHg 43%
11:00 +17°C° 0 mm 2 m/s 713 mmHg 38%
12:00 +19°C° 0 mm 2 m/s 712 mmHg 33%
13:00 +19°C° 0 mm 2 m/s 712 mmHg 31%
14:00 +20°C° 0 mm 2 m/s 711 mmHg 29%
15:00 +21°C° 0 mm 2 m/s 710 mmHg 27%
16:00 +19°C° 0 mm 3 m/s 710 mmHg 30%
17:00 +17°C° 0 mm 3 m/s 710 mmHg 33%
18:00 +14°C° 0 mm 3 m/s 711 mmHg 36%
19:00 +13°C° 0 mm 3 m/s 711 mmHg 38%
20:00 +12°C° 0 mm 3 m/s 711 mmHg 41%
21:00 +11°C° 0 mm 3 m/s 711 mmHg 43%
22:00 +11°C° 0 mm 4 m/s 711 mmHg 45%
23:00 +10°C° 0 mm 4 m/s 710 mmHg 47%

22 Junho, Terça-feira

Tempo Temperatura Precipitação Vento Pressão Humidade
00:00 +10°C° 0 mm 4 m/s 710 mmHg 49%
01:00 +10°C° 0 mm 4 m/s 710 mmHg 49%
02:00 +10°C° 0 mm 4 m/s 710 mmHg 48%
03:00 +11°C° 0 mm 4 m/s 710 mmHg 48%
04:00 +9°C° 0 mm 5 m/s 710 mmHg 48%
05:00 +9°C° 0 mm 5 m/s 710 mmHg 48%
06:00 +9°C° 0 mm 5 m/s 710 mmHg 48%
07:00 +12°C° 0 mm 5 m/s 710 mmHg 45%
08:00 +14°C° 0 mm 6 m/s 711 mmHg 41%
09:00 +15°C° 0 mm 6 m/s 711 mmHg 37%
10:00 +16°C° 0 mm 5 m/s 711 mmHg 36%
11:00 +17°C° 0 mm 3 m/s 711 mmHg 36%
12:00 +18°C° 0 mm 2 m/s 711 mmHg 36%
13:00 +17°C° 0.1 mm 2 m/s 710 mmHg 40%
14:00 +17°C° 0.1 mm 3 m/s 710 mmHg 44%
15:00 +17°C° 0.1 mm 3 m/s 710 mmHg 48%
16:00 +16°C° 0.2 mm 3 m/s 710 mmHg 54%
17:00 +15°C° 0.2 mm 2 m/s 710 mmHg 60%
18:00 +15°C° 0.2 mm 2 m/s 710 mmHg 66%
19:00 +13°C° 0.6 mm 4 m/s 711 mmHg 70%
20:00 +13°C° 0.6 mm 5 m/s 711 mmHg 74%
21:00 +12°C° 0.6 mm 7 m/s 711 mmHg 78%
22:00 +14°C° 0.1 mm 7 m/s 711 mmHg 76%
23:00 +14°C° 0.1 mm 7 m/s 711 mmHg 75%

23 Junho, Quarta-feira

Tempo Temperatura Precipitação Vento Pressão Humidade
00:00 +13°C° 0.1 mm 8 m/s 711 mmHg 73%
01:00 +14°C° 0 mm 6 m/s 711 mmHg 74%
02:00 +14°C° 0 mm 4 m/s 711 mmHg 76%
03:00 +14°C° 0 mm 3 m/s 711 mmHg 77%
04:00 +13°C° 0.1 mm 3 m/s 711 mmHg 80%
05:00 +13°C° 0.1 mm 3 m/s 711 mmHg 82%
06:00 +13°C° 0.1 mm 3 m/s 711 mmHg 85%
07:00 +13°C° 0.3 mm 3 m/s 711 mmHg 85%
08:00 +13°C° 0.3 mm 3 m/s 712 mmHg 85%
09:00 +13°C° 0.3 mm 3 m/s 712 mmHg 85%
10:00 +14°C° 0.2 mm 3 m/s 712 mmHg 80%
11:00 +14°C° 0.2 mm 3 m/s 711 mmHg 74%
12:00 +15°C° 0.2 mm 2 m/s 711 mmHg 68%
13:00 +16°C° 0.1 mm 2 m/s 711 mmHg 62%
14:00 +17°C° 0.1 mm 3 m/s 710 mmHg 56%
15:00 +17°C° 0.1 mm 3 m/s 710 mmHg 49%
16:00 +17°C° 0 mm 2 m/s 710 mmHg 52%
17:00 +16°C° 0 mm 2 m/s 710 mmHg 54%
18:00 +16°C° 0 mm 1 m/s 711 mmHg 56%
19:00 +15°C° 0 mm 1 m/s 711 mmHg 62%
20:00 +14°C° 0 mm 1 m/s 711 mmHg 68%
21:00 +13°C° 0 mm 1 m/s 711 mmHg 74%
22:00 +13°C° 0 mm 2 m/s 711 mmHg 79%
23:00 +12°C° 0 mm 2 m/s 711 mmHg 83%

24 Junho, Quinta-feira

Tempo Temperatura Precipitação Vento Pressão Humidade
00:00 +11°C° 0 mm 3 m/s 711 mmHg 87%
01:00 +10°C° 0 mm 3 m/s 711 mmHg 78%
02:00 +10°C° 0 mm 3 m/s 711 mmHg 69%
03:00 +8°C° 0 mm 4 m/s 711 mmHg 60%
04:00 +8°C° 0 mm 3 m/s 711 mmHg 61%
05:00 +7°C° 0 mm 3 m/s 711 mmHg 63%
06:00 +5°C° 0 mm 3 m/s 712 mmHg 65%
07:00 +7°C° 0 mm 3 m/s 712 mmHg 59%
08:00 +8°C° 0 mm 4 m/s 712 mmHg 54%
09:00 +10°C° 0 mm 4 m/s 713 mmHg 48%
10:00 +11°C° 0 mm 4 m/s 712 mmHg 44%
11:00 +13°C° 0 mm 4 m/s 712 mmHg 39%
12:00 +14°C° 0 mm 5 m/s 712 mmHg 35%
13:00 +15°C° 0 mm 5 m/s 711 mmHg 33%
14:00 +15°C° 0 mm 4 m/s 711 mmHg 31%
15:00 +17°C° 0 mm 4 m/s 710 mmHg 29%
16:00 +14°C° 0 mm 4 m/s 710 mmHg 32%
17:00 +13°C° 0 mm 4 m/s 711 mmHg 36%
18:00 +12°C° 0 mm 3 m/s 711 mmHg 39%
19:00 +12°C° 0 mm 2 m/s 711 mmHg 43%
20:00 +10°C° 0 mm 2 m/s 711 mmHg 46%
21:00 +10°C° 0 mm 1 m/s 712 mmHg 49%
22:00 +9°C° 0 mm 2 m/s 712 mmHg 49%
23:00 +9°C° 0 mm 2 m/s 712 mmHg 50%
Mostrar mais